RYR9MA LOWW-LBSF

Flight info

Callsign RYR9MA
Flight time N/A
Altitude 35000
Route ARSIN DCT NALOX DCT BABIT/N0437F330 DCT RAVAK DCT NISVA
Aircraft A320/M-SDE3FGHIRWY/LB1

Departure

Time 2026-05-06 10:46
Airport Vienna International Airport (LOWW)

Arrival

Time N/A
Airport Sofia Airport (LBSF)
Time Latitude Longitude Altitude Speed Heading
2026-05-06 10:16 48.11826 16.56212 623 ft 0 kts 303°
2026-05-06 10:33 48.11821 16.56224 623 ft 4 kts 303°
2026-05-06 10:33 48.11806 16.56258 624 ft 4 kts 302°
2026-05-06 10:33 48.11792 16.56292 614 ft 4 kts 302°
2026-05-06 10:33 48.11777 16.56326 626 ft 4 kts 301°
2026-05-06 10:34 48.11763 16.56361 617 ft 4 kts 301°
2026-05-06 10:34 48.11750 16.56396 618 ft 4 kts 299°
2026-05-06 10:34 48.11740 16.56421 626 ft 0 kts 296°
2026-05-06 10:36 48.11741 16.56420 626 ft 1 kts 296°
2026-05-06 10:36 48.11744 16.56409 626 ft 2 kts 296°
2026-05-06 10:37 48.11756 16.56359 620 ft 8 kts 281°
2026-05-06 10:37 48.11730 16.56297 621 ft 1 kts 211°
2026-05-06 10:37 48.11725 16.56293 610 ft 1 kts 208°
2026-05-06 10:37 48.11690 16.56266 615 ft 8 kts 207°
2026-05-06 10:38 48.11633 16.56267 620 ft 9 kts 144°
2026-05-06 10:38 48.11599 16.56358 610 ft 11 kts 116°
2026-05-06 10:38 48.11564 16.56465 614 ft 12 kts 115°
2026-05-06 10:38 48.11525 16.56585 617 ft 14 kts 116°
2026-05-06 10:39 48.11482 16.56718 619 ft 15 kts 116°
2026-05-06 10:39 48.11435 16.56862 616 ft 16 kts 115°
2026-05-06 10:39 48.11389 16.57005 614 ft 12 kts 116°
2026-05-06 10:39 48.11355 16.57108 616 ft 11 kts 116°
2026-05-06 10:40 48.11319 16.57219 610 ft 13 kts 116°
2026-05-06 10:40 48.11278 16.57341 614 ft 14 kts 116°
2026-05-06 10:40 48.11236 16.57475 620 ft 15 kts 114°
2026-05-06 10:40 48.11190 16.57615 614 ft 13 kts 115°
2026-05-06 10:41 48.11147 16.57748 615 ft 15 kts 116°
2026-05-06 10:41 48.11145 16.57878 610 ft 13 kts 22°
2026-05-06 10:41 48.11228 16.57858 610 ft 11 kts 343°
2026-05-06 10:41 48.11298 16.57826 619 ft 10 kts 343°
2026-05-06 10:42 48.11359 16.57800 624 ft 8 kts 343°
2026-05-06 10:42 48.11409 16.57779 610 ft 7 kts 345°
2026-05-06 10:42 48.11456 16.57760 616 ft 7 kts 344°
2026-05-06 10:42 48.11507 16.57738 619 ft 7 kts 344°
2026-05-06 10:43 48.11574 16.57710 617 ft 12 kts 344°
2026-05-06 10:43 48.11652 16.57677 619 ft 11 kts 344°
2026-05-06 10:43 48.11719 16.57648 614 ft 9 kts 344°
2026-05-06 10:44 48.11855 16.57661 613 ft 10 kts 63°
2026-05-06 10:44 48.11860 16.57754 622 ft 9 kts 103°
2026-05-06 10:44 48.11829 16.57849 620 ft 11 kts 128°
2026-05-06 10:44 48.11766 16.57909 610 ft 3 kts 163°
2026-05-06 10:45 48.11751 16.57915 610 ft 11 kts 165°
2026-05-06 10:45 48.11461 16.58038 612 ft 78 kts 164°
2026-05-06 10:45 48.10741 16.58340 616 ft 134 kts 164°
2026-05-06 10:45 48.09709 16.58773 772 ft 165 kts 163°
2026-05-06 10:46 48.08577 16.59228 1385 ft 173 kts 165°
2026-05-06 10:46 48.07356 16.59737 1915 ft 191 kts 165°
2026-05-06 10:46 48.06007 16.60306 2457 ft 210 kts 165°
2026-05-06 10:46 48.04544 16.60916 3129 ft 226 kts 167°
2026-05-06 10:47 48.02982 16.61549 3856 ft 239 kts 167°
2026-05-06 10:47 48.01336 16.62191 4648 ft 250 kts 168°
2026-05-06 10:47 47.99625 16.62819 5502 ft 255 kts 170°
2026-05-06 10:47 47.97871 16.63318 6423 ft 258 kts 173°
2026-05-06 10:48 47.96115 16.63483 7304 ft 255 kts 184°
2026-05-06 10:48 47.94364 16.63422 8331 ft 250 kts 183°
2026-05-06 10:48 47.92648 16.63344 9367 ft 246 kts 185°
2026-05-06 10:48 47.90868 16.63190 9808 ft 264 kts 186°
2026-05-06 10:49 47.88998 16.62987 10306 ft 279 kts 186°
2026-05-06 10:49 47.86980 16.62780 10560 ft 302 kts 186°
2026-05-06 10:49 47.84817 16.62590 10983 ft 318 kts 185°
2026-05-06 10:49 47.82587 16.62426 11678 ft 323 kts 185°
2026-05-06 10:50 47.80327 16.62280 12409 ft 327 kts 184°
2026-05-06 10:50 47.78037 16.62153 13154 ft 331 kts 182°
2026-05-06 10:50 47.75725 16.62487 13849 ft 338 kts 171°
2026-05-06 10:50 47.73466 16.63573 14457 ft 347 kts 158°
2026-05-06 10:51 47.71276 16.65133 15093 ft 351 kts 157°
2026-05-06 10:51 47.69062 16.66707 15701 ft 355 kts 158°
2026-05-06 10:51 47.66813 16.68291 16276 ft 360 kts 158°
2026-05-06 10:51 47.64533 16.69887 16860 ft 365 kts 158°
2026-05-06 10:52 47.62220 16.71506 17449 ft 370 kts 158°
2026-05-06 10:52 47.59882 16.73143 18048 ft 374 kts 158°
2026-05-06 10:52 47.57480 16.74662 18549 ft 376 kts 165°
2026-05-06 10:52 47.54930 16.75510 19057 ft 376 kts 176°
2026-05-06 10:53 47.52315 16.75786 19596 ft 378 kts 179°
2026-05-06 10:53 47.49677 16.76028 20129 ft 382 kts 179°
2026-05-06 10:53 47.47015 16.76283 20668 ft 385 kts 179°
2026-05-06 10:53 47.44332 16.76541 21195 ft 388 kts 179°
2026-05-06 10:54 47.41627 16.76799 21717 ft 391 kts 179°
2026-05-06 10:54 47.38896 16.77062 22238 ft 395 kts 179°
2026-05-06 10:54 47.36145 16.77328 22754 ft 397 kts 179°
2026-05-06 10:54 47.33378 16.77598 23258 ft 401 kts 179°
2026-05-06 10:55 47.30583 16.77868 23696 ft 403 kts 179°
2026-05-06 10:55 47.27776 16.78131 24088 ft 406 kts 179°
2026-05-06 10:55 47.24942 16.78395 24484 ft 409 kts 179°
2026-05-06 10:55 47.22094 16.78662 24875 ft 411 kts 179°
2026-05-06 10:56 47.19230 16.78933 25232 ft 414 kts 179°
2026-05-06 10:56 47.16348 16.79209 25609 ft 417 kts 179°